TimeCDT,TemperatureF,Dew PointF,Humidity,Sea Level PressureIn,VisibilityMPH,Wind Direction,Wind SpeedMPH,Gust SpeedMPH,PrecipitationIn,Events,Conditions,WindDirDegrees,DateUTC
12:15 AM,57.2,39.2,51,29.95,10.0,SSW,6.9,-,N/A,,Clear,210,2012-10-04 05:15:00
12:35 AM,57.2,39.2,51,29.98,10.0,West,10.4,20.7,N/A,,Clear,260,2012-10-04 05:35:00
12:55 AM,57.2,39.2,51,29.98,10.0,WSW,4.6,-,N/A,,Clear,250,2012-10-04 05:55:00
1:15 AM,53.6,39.2,58,29.99,10.0,West,8.1,-,N/A,,Clear,280,2012-10-04 06:15:00
1:35 AM,55.4,39.2,54,30.01,10.0,NW,8.1,-,N/A,,Clear,320,2012-10-04 06:35:00
1:55 AM,53.6,39.2,58,30.02,10.0,NW,16.1,20.7,N/A,,Clear,310,2012-10-04 06:55:00
2:15 AM,53.6,39.2,58,30.02,10.0,NNW,16.1,-,N/A,,Clear,330,2012-10-04 07:15:00
2:35 AM,51.8,39.2,62,30.04,10.0,NNW,12.7,20.7,N/A,,Clear,330,2012-10-04 07:35:00
2:55 AM,51.8,39.2,62,30.06,10.0,WNW,17.3,24.2,N/A,,Clear,300,2012-10-04 07:55:00
3:15 AM,51.8,39.2,62,30.07,10.0,NW,17.3,21.9,N/A,,Clear,310,2012-10-04 08:15:00
3:35 AM,51.8,39.2,62,30.08,10.0,WNW,19.6,26.5,N/A,,Clear,300,2012-10-04 08:35:00
3:55 AM,51.8,39.2,62,30.06,10.0,NW,19.6,25.3,N/A,,Scattered Clouds,320,2012-10-04 08:55:00
4:15 AM,50.0,42.8,76,30.10,10.0,NW,13.8,20.7,N/A,Rain,Light Rain,320,2012-10-04 09:15:00
4:35 AM,48.2,44.6,87,30.09,10.0,NNW,16.1,20.7,N/A,Rain,Light Rain,330,2012-10-04 09:35:00
4:55 AM,48.2,44.6,87,30.05,10.0,North,12.7,16.1,0.02,Rain,Rain,10,2012-10-04 09:55:00
5:15 AM,46.4,44.6,93,30.04,10.0,NNW,18.4,28.8,0.04,Rain,Rain,340,2012-10-04 10:15:00
5:35 AM,46.4,46.4,100,30.10,10.0,NW,20.7,27.6,0.04,,Scattered Clouds,320,2012-10-04 10:35:00
5:55 AM,46.4,42.8,87,30.12,10.0,NW,16.1,25.3,0.04,Rain,Light Rain,310,2012-10-04 10:55:00
6:15 AM,46.4,42.8,87,30.14,10.0,NW,10.4,17.3,0.02,Rain,Light Rain,310,2012-10-04 11:15:00
6:35 AM,46.4,42.8,87,30.13,10.0,NNW,15.0,20.7,0.03,Rain,Light Rain,330,2012-10-04 11:35:00
6:55 AM,44.6,39.2,81,30.15,10.0,NNW,15.0,20.7,0.03,,Overcast,330,2012-10-04 11:55:00
7:15 AM,44.6,39.2,81,30.16,10.0,NW,15.0,19.6,N/A,,Overcast,320,2012-10-04 12:15:00
7:35 AM,44.6,39.2,81,30.18,10.0,NW,11.5,16.1,N/A,,Mostly Cloudy,320,2012-10-04 12:35:00
7:55 AM,44.6,39.2,81,30.18,10.0,NW,8.1,-,N/A,,Mostly Cloudy,320,2012-10-04 12:55:00
8:15 AM,44.6,39.2,81,30.19,10.0,NW,12.7,-,N/A,,Mostly Cloudy,310,2012-10-04 13:15:00
8:35 AM,42.8,37.4,81,30.21,10.0,NW,10.4,-,N/A,,Mostly Cloudy,310,2012-10-04 13:35:00
8:55 AM,44.6,37.4,76,30.21,10.0,NW,10.4,17.3,N/A,,Overcast,310,2012-10-04 13:55:00
9:15 AM,44.6,37.4,76,30.21,10.0,NW,13.8,19.6,N/A,,Overcast,320,2012-10-04 14:15:00
9:35 AM,44.6,37.4,76,30.21,10.0,NNW,15.0,20.7,N/A,,Overcast,330,2012-10-04 14:35:00
9:55 AM,44.6,37.4,76,30.23,10.0,NW,12.7,18.4,N/A,,Overcast,310,2012-10-04 14:55:00
10:15 AM,44.6,35.6,71,30.23,10.0,NW,17.3,21.9,N/A,,Overcast,320,2012-10-04 15:15:00
10:35 AM,44.6,37.4,76,30.24,10.0,NW,15.0,24.2,N/A,,Scattered Clouds,310,2012-10-04 15:35:00
10:55 AM,46.4,35.6,66,30.25,10.0,NW,18.4,24.2,N/A,,Scattered Clouds,310,2012-10-04 15:55:00
11:15 AM,48.2,35.6,62,30.26,10.0,NNW,18.4,24.2,N/A,,Scattered Clouds,330,2012-10-04 16:15:00
11:35 AM,48.2,35.6,62,30.27,10.0,NW,13.8,23.0,N/A,,Mostly Cloudy,320,2012-10-04 16:35:00
11:55 AM,50.0,35.6,58,30.28,10.0,NW,18.4,24.2,N/A,,Mostly Cloudy,320,2012-10-04 16:55:00
12:15 PM,51.8,35.6,54,30.28,10.0,NW,12.7,-,N/A,,Scattered Clouds,320,2012-10-04 17:15:00
12:35 PM,51.8,35.6,54,30.28,10.0,NW,12.7,20.7,N/A,,Scattered Clouds,320,2012-10-04 17:35:00
12:55 PM,51.8,33.8,50,30.27,10.0,WNW,17.3,25.3,N/A,,Scattered Clouds,300,2012-10-04 17:55:00
1:35 PM,53.6,33.8,47,30.27,10.0,NW,20.7,25.3,N/A,,Clear,320,2012-10-04 18:35:00
1:55 PM,53.6,33.8,47,30.27,10.0,NW,13.8,26.5,N/A,,Clear,310,2012-10-04 18:55:00
2:15 PM,53.6,32.0,44,30.26,10.0,NNW,15.0,20.7,N/A,,Clear,330,2012-10-04 19:15:00
2:35 PM,55.4,30.2,38,30.26,10.0,NW,16.1,27.6,N/A,,Clear,320,2012-10-04 19:35:00
2:55 PM,55.4,30.2,38,30.26,10.0,NW,16.1,23.0,N/A,,Clear,310,2012-10-04 19:55:00
3:15 PM,55.4,30.2,38,30.26,10.0,NW,18.4,24.2,N/A,,Clear,320,2012-10-04 20:15:00
3:35 PM,55.4,30.2,38,30.26,10.0,NW,15.0,20.7,N/A,,Clear,320,2012-10-04 20:35:00
3:55 PM,55.4,30.2,38,30.25,10.0,NW,12.7,19.6,N/A,,Clear,320,2012-10-04 20:55:00
4:15 PM,55.4,28.4,36,30.26,10.0,NNW,16.1,20.7,N/A,,Clear,340,2012-10-04 21:15:00
4:35 PM,55.4,28.4,36,30.26,10.0,NW,18.4,24.2,N/A,,Clear,320,2012-10-04 21:35:00
4:55 PM,55.4,30.2,38,30.26,10.0,NW,13.8,23.0,N/A,,Clear,320,2012-10-04 21:55:00
5:15 PM,53.6,30.2,41,30.27,10.0,NNW,15.0,19.6,N/A,,Clear,330,2012-10-04 22:15:00
5:55 PM,51.8,28.4,41,30.27,10.0,NNW,11.5,17.3,N/A,,Clear,340,2012-10-04 22:55:00
6:15 PM,51.8,28.4,41,30.26,10.0,NW,9.2,-,N/A,,Clear,320,2012-10-04 23:15:00
6:35 PM,50.0,30.2,47,30.27,10.0,NNW,6.9,-,N/A,,Clear,330,2012-10-04 23:35:00
6:55 PM,48.2,30.2,50,30.28,10.0,NNW,6.9,-,N/A,,Clear,330,2012-10-04 23:55:00
7:15 PM,46.4,30.2,53,30.29,10.0,NW,5.8,-,N/A,,Clear,320,2012-10-05 00:15:00
7:35 PM,46.4,30.2,53,30.29,10.0,NW,3.5,-,N/A,,Clear,310,2012-10-05 00:35:00
7:55 PM,44.6,30.2,57,30.30,10.0,WNW,3.5,-,N/A,,Clear,300,2012-10-05 00:55:00
8:15 PM,44.6,32.0,61,30.31,10.0,WNW,4.6,-,N/A,,Clear,300,2012-10-05 01:15:00
8:35 PM,46.4,30.2,53,30.32,10.0,NNW,6.9,-,N/A,,Clear,330,2012-10-05 01:35:00
8:55 PM,46.4,30.2,53,30.32,10.0,NNW,8.1,-,N/A,,Clear,340,2012-10-05 01:55:00
9:15 PM,46.4,30.2,53,30.31,10.0,NNW,5.8,-,N/A,,Clear,340,2012-10-05 02:15:00
9:35 PM,44.6,30.2,57,30.31,10.0,North,6.9,-,N/A,,Clear,350,2012-10-05 02:35:00
9:55 PM,42.8,30.2,61,30.33,10.0,NNW,6.9,-,N/A,,Clear,330,2012-10-05 02:55:00
10:15 PM,42.8,30.2,61,30.33,10.0,NNW,8.1,-,N/A,,Clear,340,2012-10-05 03:15:00
10:35 PM,42.8,30.2,61,30.34,10.0,NNW,8.1,-,N/A,,Clear,330,2012-10-05 03:35:00
10:55 PM,42.8,28.4,57,30.33,10.0,NNW,10.4,-,N/A,,Clear,340,2012-10-05 03:55:00
11:15 PM,42.8,28.4,57,30.34,10.0,NNW,8.1,-,N/A,,Clear,340,2012-10-05 04:15:00
11:35 PM,41.0,28.4,61,30.33,10.0,North,6.9,-,N/A,,Clear,350,2012-10-05 04:35:00
11:55 PM,39.2,28.4,65,30.34,10.0,North,5.8,-,N/A,,Clear,350,2012-10-05 04:55:00